Time,TemperatureF,DewpointF,PressureIn,WindDirection,WindDirectionDegrees,WindSpeedMPH,WindSpeedGustMPH,Humidity,HourlyPrecipIn,Conditions,Clouds,dailyrainin,SoftwareType,DateUTC
2013-02-10 00:01:00,71.0,68.0,29.93,SE,130,7.0,10.0,90,0.00,,,0.00,,2013-02-10 06:01:00,
2013-02-10 00:11:00,71.0,68.0,29.93,SE,130,7.0,10.0,90,0.00,,,0.00,,2013-02-10 06:11:00,
2013-02-10 00:21:00,71.0,68.0,29.93,SE,144,3.0,8.0,90,0.00,,,0.00,,2013-02-10 06:21:00,
2013-02-10 00:32:00,71.0,68.0,29.92,ESE,119,6.0,10.0,90,0.00,,,0.00,,2013-02-10 06:32:00,
2013-02-10 00:42:00,71.0,68.0,29.92,ESE,119,6.0,10.0,90,0.00,,,0.00,,2013-02-10 06:42:00,
2013-02-10 00:52:00,72.0,69.0,29.91,ESE,116,9.0,13.0,90,0.00,,,0.00,,2013-02-10 06:52:00,
2013-02-10 01:01:00,72.0,69.0,29.91,SE,137,5.0,14.0,90,0.00,,,0.00,,2013-02-10 07:01:00,
2013-02-10 01:11:00,72.0,69.0,29.91,SE,137,5.0,14.0,90,0.00,,,0.00,,2013-02-10 07:11:00,
2013-02-10 01:21:00,72.0,69.0,29.89,SE,132,8.0,14.0,89,0.00,,,0.00,,2013-02-10 07:21:00,
2013-02-10 01:31:00,72.0,69.0,29.88,SE,125,9.0,13.0,90,0.00,,,0.00,,2013-02-10 07:31:00,
2013-02-10 01:41:00,72.0,69.0,29.88,SE,125,9.0,13.0,90,0.00,,,0.00,,2013-02-10 07:41:00,
2013-02-10 01:52:00,72.0,69.0,29.87,SSE,152,6.0,12.0,90,0.00,,,0.00,,2013-02-10 07:52:00,
2013-02-10 02:01:00,72.0,69.0,29.88,ESE,107,5.0,14.0,90,0.00,,,0.00,,2013-02-10 08:01:00,
2013-02-10 02:11:00,72.0,69.0,29.88,ESE,107,5.0,14.0,90,0.00,,,0.00,,2013-02-10 08:11:00,
2013-02-10 02:21:00,72.0,69.0,29.89,SSE,150,3.0,9.0,90,0.00,,,0.00,,2013-02-10 08:21:00,
2013-02-10 02:32:00,72.0,69.0,29.88,ESE,113,5.0,9.0,90,0.00,,,0.00,,2013-02-10 08:32:00,
2013-02-10 02:43:00,72.0,69.0,29.88,ESE,113,5.0,9.0,90,0.00,,,0.00,,2013-02-10 08:43:00,
2013-02-10 02:52:00,72.0,69.0,29.88,ESE,123,3.0,7.0,90,0.00,,,0.00,,2013-02-10 08:52:00,
2013-02-10 03:02:00,72.0,69.0,29.88,ESE,123,3.0,7.0,90,0.00,,,0.00,,2013-02-10 09:02:00,
2013-02-10 03:11:00,72.0,69.0,29.88,ESE,123,3.0,7.0,90,0.00,,,0.00,,2013-02-10 09:11:00,
2013-02-10 03:21:00,72.0,69.0,29.88,ESE,123,3.0,7.0,90,0.00,,,0.00,,2013-02-10 09:21:00,
2013-02-10 07:32:00,75.0,73.0,29.82,SE,142,11.0,18.0,92,0.00,,,0.00,,2013-02-10 13:32:00,
2013-02-10 07:42:00,75.0,73.0,29.82,SE,142,11.0,18.0,92,0.00,,,0.00,,2013-02-10 13:42:00,
2013-02-10 07:52:00,75.0,73.0,29.83,SSE,148,10.0,17.0,92,0.00,,,0.00,,2013-02-10 13:52:00,
2013-02-10 08:02:00,75.0,73.0,29.83,SSE,164,12.0,17.0,92,0.00,,,0.00,,2013-02-10 14:02:00,
2013-02-10 08:11:00,75.0,73.0,29.83,SSE,164,12.0,17.0,92,0.00,,,0.00,,2013-02-10 14:11:00,
2013-02-10 08:21:00,76.0,74.0,29.84,South,183,11.0,19.0,92,0.00,,,0.00,,2013-02-10 14:21:00,
2013-02-10 08:31:00,76.0,73.0,29.84,SE,133,10.0,18.0,91,0.00,,,0.00,,2013-02-10 14:31:00,
2013-02-10 08:52:00,77.0,74.0,29.84,SSE,161,10.0,17.0,90,0.00,,,0.00,,2013-02-10 14:52:00,
2013-02-10 09:01:00,77.0,73.0,29.85,SE,138,11.0,17.0,88,0.00,,,0.00,,2013-02-10 15:01:00,
2013-02-10 09:21:00,78.0,73.0,29.86,SSE,157,9.0,16.0,86,0.00,,,0.00,,2013-02-10 15:21:00,
2013-02-10 09:31:00,79.0,74.0,29.86,SE,144,9.0,16.0,85,0.00,,,0.00,,2013-02-10 15:31:00,
2013-02-10 09:52:00,80.0,74.0,29.85,South,169,11.0,16.0,83,0.00,,,0.00,,2013-02-10 15:52:00,
2013-02-10 10:02:00,80.0,74.0,29.86,South,179,9.0,19.0,83,0.00,,,0.00,,2013-02-10 16:02:00,
2013-02-10 10:11:00,80.0,75.0,29.85,SSE,150,9.0,18.0,84,0.00,,,0.00,,2013-02-10 16:11:00,
2013-02-10 10:21:00,80.0,75.0,29.85,SSE,150,9.0,18.0,84,0.00,,,0.00,,2013-02-10 16:21:00,
2013-02-10 10:32:00,80.0,75.0,29.85,SE,146,9.0,17.0,84,0.00,,,0.00,,2013-02-10 16:32:00,
2013-02-10 10:42:00,80.0,74.0,29.86,SSE,161,10.0,16.0,83,0.00,,,0.00,,2013-02-10 16:42:00,
2013-02-10 10:52:00,80.0,74.0,29.86,SSE,161,10.0,16.0,83,0.00,,,0.00,,2013-02-10 16:52:00,
2013-02-10 11:01:00,80.0,75.0,29.86,SE,145,9.0,17.0,84,0.00,,,0.00,,2013-02-10 17:01:00,
2013-02-10 11:11:00,80.0,75.0,29.86,SE,145,9.0,17.0,84,0.00,,,0.00,,2013-02-10 17:11:00,
2013-02-10 11:21:00,79.0,74.0,29.86,SSE,159,7.0,19.0,84,0.00,,,0.00,,2013-02-10 17:21:00,
2013-02-10 11:32:00,80.0,75.0,29.86,SSE,150,9.0,20.0,84,0.00,,,0.00,,2013-02-10 17:32:00,
2013-02-10 11:42:00,81.0,75.0,29.86,SSE,166,9.0,22.0,82,0.00,,,0.00,,2013-02-10 17:42:00,
2013-02-10 11:52:00,81.0,75.0,29.86,SSE,166,9.0,22.0,82,0.00,,,0.00,,2013-02-10 17:52:00,
2013-02-10 12:02:00,81.0,75.0,29.86,South,185,9.0,22.0,81,0.00,,,0.00,,2013-02-10 18:02:00,
2013-02-10 12:11:00,80.0,74.0,29.85,SE,142,10.0,17.0,82,0.00,,,0.00,,2013-02-10 18:11:00,
2013-02-10 12:21:00,80.0,74.0,29.85,SE,142,10.0,17.0,82,0.00,,,0.00,,2013-02-10 18:21:00,
2013-02-10 12:32:00,81.0,75.0,29.85,South,169,11.0,20.0,82,0.00,,,0.00,,2013-02-10 18:32:00,
2013-02-10 12:52:00,80.0,75.0,29.85,SE,138,10.0,20.0,84,0.00,,,0.00,,2013-02-10 18:52:00,
2013-02-10 13:01:00,81.0,75.0,29.84,SSW,198,10.0,22.0,82,0.00,,,0.00,,2013-02-10 19:01:00,
2013-02-10 13:11:00,81.0,75.0,29.84,East,80,9.0,18.0,82,0.00,,,0.00,,2013-02-10 19:11:00,
2013-02-10 13:21:00,81.0,75.0,29.84,East,80,9.0,18.0,82,0.00,,,0.00,,2013-02-10 19:21:00,
2013-02-10 13:32:00,82.0,76.0,29.83,South,175,10.0,18.0,82,0.00,,,0.00,,2013-02-10 19:32:00,
2013-02-10 13:42:00,81.0,75.0,29.83,SW,234,9.0,19.0,82,0.00,,,0.00,,2013-02-10 19:42:00,
2013-02-10 13:52:00,81.0,75.0,29.83,SW,234,9.0,19.0,82,0.00,,,0.00,,2013-02-10 19:52:00,
2013-02-10 14:02:00,81.0,75.0,29.83,SSE,157,9.0,18.0,83,0.00,,,0.00,,2013-02-10 20:02:00,
2013-02-10 14:11:00,80.0,75.0,29.83,SSE,157,8.0,17.0,85,0.00,,,0.00,,2013-02-10 20:11:00,
2013-02-10 14:21:00,80.0,75.0,29.83,SSE,157,8.0,17.0,85,0.00,,,0.00,,2013-02-10 20:21:00,
2013-02-10 14:32:00,79.0,74.0,29.83,SSE,155,7.0,22.0,86,0.00,,,0.00,,2013-02-10 20:32:00,
2013-02-10 14:42:00,79.0,75.0,29.82,SE,145,7.0,18.0,87,0.00,,,0.00,,2013-02-10 20:42:00,
2013-02-10 14:52:00,79.0,75.0,29.82,SE,145,7.0,18.0,87,0.00,,,0.00,,2013-02-10 20:52:00,
2013-02-10 15:02:00,79.0,74.0,29.82,SSE,155,6.0,12.0,86,0.00,,,0.00,,2013-02-10 21:02:00,
2013-02-10 15:11:00,79.0,75.0,29.82,SSE,166,7.0,14.0,87,0.00,,,0.00,,2013-02-10 21:11:00,
2013-02-10 15:21:00,79.0,75.0,29.82,SSE,166,7.0,14.0,87,0.00,,,0.00,,2013-02-10 21:21:00,
2013-02-10 15:32:00,78.0,74.0,29.83,South,170,7.0,15.0,88,0.00,,,0.00,,2013-02-10 21:32:00,
2013-02-10 15:42:00,78.0,74.0,29.82,SSW,198,6.0,15.0,88,0.00,,,0.00,,2013-02-10 21:42:00,
2013-02-10 15:52:00,78.0,74.0,29.82,SSW,198,6.0,15.0,88,0.00,,,0.00,,2013-02-10 21:52:00,
2013-02-10 16:01:00,78.0,74.0,29.83,South,186,7.0,13.0,88,0.00,,,0.00,,2013-02-10 22:01:00,
2013-02-10 16:11:00,78.0,74.0,29.83,SSE,153,5.0,14.0,89,0.00,,,0.00,,2013-02-10 22:11:00,
2013-02-10 16:21:00,78.0,74.0,29.83,SSE,153,5.0,14.0,89,0.00,,,0.00,,2013-02-10 22:21:00,
2013-02-10 16:32:00,78.0,74.0,29.83,SW,227,6.0,12.0,89,0.00,,,0.00,,2013-02-10 22:32:00,
2013-02-10 16:42:00,78.0,74.0,29.83,South,178,4.0,10.0,89,0.00,,,0.00,,2013-02-10 22:42:00,
2013-02-10 16:52:00,78.0,74.0,29.83,South,178,4.0,10.0,89,0.00,,,0.00,,2013-02-10 22:52:00,
2013-02-10 17:02:00,78.0,74.0,29.84,SSE,155,5.0,14.0,89,0.00,,,0.00,,2013-02-10 23:02:00,
2013-02-10 17:22:00,77.0,73.0,29.85,West,277,4.0,14.0,88,0.00,,,0.00,,2013-02-10 23:22:00,
2013-02-10 17:32:00,74.0,70.0,29.85,West,273,3.0,10.0,86,0.00,,,0.00,,2013-02-10 23:32:00,
2013-02-10 17:42:00,74.0,69.0,29.86,NNW,327,2.0,6.0,85,0.00,,,0.00,,2013-02-10 23:42:00,
2013-02-10 17:52:00,74.0,69.0,29.86,NNW,327,2.0,6.0,85,0.00,,,0.00,,2013-02-10 23:52:00,
2013-02-10 18:02:00,72.0,66.0,29.86,NW,311,4.0,8.0,81,0.00,,,0.00,,2013-02-11 00:02:00,
2013-02-10 18:11:00,71.0,66.0,29.87,NW,319,2.0,5.0,84,0.00,,,0.00,,2013-02-11 00:11:00,
2013-02-10 18:22:00,71.0,66.0,29.87,NW,319,2.0,5.0,84,0.00,,,0.00,,2013-02-11 00:22:00,
2013-02-10 18:32:00,70.0,65.0,29.87,NNE,24,3.0,6.0,85,0.00,,,0.00,,2013-02-11 00:32:00,
2013-02-10 18:42:00,69.0,65.0,29.88,NNW,345,3.0,5.0,87,0.00,,,0.00,,2013-02-11 00:42:00,
2013-02-10 18:52:00,69.0,65.0,29.88,NNW,345,3.0,5.0,87,0.00,,,0.00,,2013-02-11 00:52:00,
2013-02-10 19:01:00,69.0,65.0,29.88,North,9,2.0,4.0,87,0.00,,,0.00,,2013-02-11 01:01:00,
2013-02-10 19:11:00,69.0,65.0,29.88,North,9,2.0,4.0,87,0.00,,,0.00,,2013-02-11 01:11:00,
2013-02-10 19:21:00,69.0,65.0,29.89,NNE,19,2.0,5.0,87,0.00,,,0.00,,2013-02-11 01:21:00,
2013-02-10 19:32:00,70.0,66.0,29.89,NNE,16,1.0,3.0,87,0.00,,,0.00,,2013-02-11 01:32:00,
2013-02-10 19:41:00,70.0,66.0,29.89,NE,40,1.0,2.0,88,0.00,,,0.00,,2013-02-11 01:41:00,
2013-02-10 19:52:00,70.0,66.0,29.89,NE,40,1.0,2.0,88,0.00,,,0.00,,2013-02-11 01:52:00,
2013-02-10 20:01:00,70.0,66.0,29.90,NE,51,1.0,4.0,88,0.00,,,0.00,,2013-02-11 02:01:00,
2013-02-10 20:11:00,70.0,66.0,29.90,NE,51,1.0,4.0,88,0.00,,,0.00,,2013-02-11 02:11:00,
2013-02-10 20:21:00,70.0,66.0,29.90,NE,55,1.0,3.0,87,0.00,,,0.00,,2013-02-11 02:21:00,
2013-02-10 20:31:00,70.0,66.0,29.90,NE,53,2.0,4.0,87,0.00,,,0.00,,2013-02-11 02:31:00,
2013-02-10 20:42:00,70.0,66.0,29.91,ENE,58,2.0,3.0,87,0.00,,,0.00,,2013-02-11 02:42:00,
2013-02-10 20:52:00,70.0,66.0,29.91,ENE,58,2.0,3.0,87,0.00,,,0.00,,2013-02-11 02:52:00,
2013-02-10 21:01:00,70.0,66.0,29.91,ENE,60,1.0,2.0,87,0.00,,,0.00,,2013-02-11 03:01:00,
2013-02-10 21:11:00,70.0,66.0,29.92,NE,56,0.0,2.0,88,0.00,,,0.00,,2013-02-11 03:11:00,
2013-02-10 21:21:00,70.0,66.0,29.92,NE,56,0.0,2.0,88,0.00,,,0.00,,2013-02-11 03:21:00,
2013-02-10 21:31:00,70.0,66.0,29.93,NE,56,1.0,2.0,88,0.00,,,0.00,,2013-02-11 03:31:00,
2013-02-10 21:42:00,70.0,66.0,29.93,NE,34,0.0,4.0,88,0.00,,,0.00,,2013-02-11 03:42:00,
2013-02-10 21:52:00,70.0,66.0,29.93,NE,34,0.0,4.0,88,0.00,,,0.00,,2013-02-11 03:52:00,
2013-02-10 22:01:00,70.0,67.0,29.93,North,5,1.0,4.0,89,0.00,,,0.00,,2013-02-11 04:01:00,
2013-02-10 22:11:00,70.0,67.0,29.93,North,5,1.0,4.0,89,0.00,,,0.00,,2013-02-11 04:11:00,
2013-02-10 22:21:00,70.0,67.0,29.94,North,5,1.0,3.0,89,0.01,,,0.01,,2013-02-11 04:21:00,
2013-02-10 22:31:00,70.0,67.0,29.93,NE,47,1.0,3.0,89,0.01,,,0.01,,2013-02-11 04:31:00,
2013-02-10 22:42:00,70.0,67.0,29.93,ENE,62,1.0,4.0,90,0.01,,,0.01,,2013-02-11 04:42:00,
2013-02-10 22:52:00,70.0,67.0,29.93,ENE,62,1.0,4.0,90,0.01,,,0.01,,2013-02-11 04:52:00,
2013-02-10 23:01:00,70.0,67.0,29.92,ENE,70,1.0,3.0,90,0.01,,,0.01,,2013-02-11 05:01:00,
2013-02-10 23:11:00,70.0,67.0,29.93,ENE,69,1.0,3.0,90,0.00,,,0.01,,2013-02-11 05:11:00,
2013-02-10 23:22:00,70.0,67.0,29.93,ENE,69,1.0,3.0,90,0.00,,,0.01,,2013-02-11 05:22:00,
2013-02-10 23:31:00,70.0,67.0,29.93,ENE,70,1.0,3.0,90,0.00,,,0.01,,2013-02-11 05:31:00,
2013-02-10 23:42:00,71.0,68.0,29.93,ENE,65,0.0,2.0,90,0.00,,,0.01,,2013-02-11 05:42:00,
2013-02-10 23:52:00,71.0,68.0,29.93,ENE,65,0.0,2.0,90,0.00,,,0.01,,2013-02-11 05:52:00,